Regional Weather Roundup
Issued by NWS

Home | Current Version | Previous Version | Graphics & Text | Print | Product List | Glossary On
Versions: 1 2 3 4 5 6 7 8 9 10 11 12 13 14 15 16 17 18 19 20 21 22 23 24 25 26 27 28 29 30 31 32 33 34 35 36 37 38 39 40 41 42 43 44 45 46 47 48 49 50
000
ASUS43 KMKX 180859
RWRWI

WISCONSIN REGIONAL WEATHER ROUNDUP
NATIONAL WEATHER SERVICE MILWAUKEE/SULLIVAN WI
300 AM CST MON DEC 18 2017

NOTE: "FAIR" INDICATES FEW OR NO CLOUDS BELOW 12,000 FEET WITH NO
SIGNIFICANT WEATHER AND/OR OBSTRUCTIONS TO VISIBILITY.

WIZ001-002-006>008-014>016-023>028-181000-
NORTHWEST WISCONSIN

CITY           SKY/WX    TMP DP  RH WIND       PRES   REMARKS
SUPERIOR ARPT  CLOUDY    25  22  88 SW6       29.86S WCI  18
ASHLAND        CLOUDY    27  23  85 SW9       29.86F WCI  18
HAYWARD        CLOUDY    27  24  89 SW6       29.85F FOG     WCI  20
SIREN          CLOUDY    26  24  94 S6        29.87F FOG     WCI  19
CUMBERLAND     FOG       25  23  93 SW6       29.87F VSB 1/2 WCI  18
RICE LAKE      CLOUDY    26  26 100 CALM      29.90S FOG
CHETEK         CLOUDY    25  25  99 SW3       29.89S
LADYSMITH      FOG       27  27  98 SW6       29.88S VSB 1   WCI  21
EAU CLAIRE     CLOUDY    27  27 100 SW3       29.89F FOG
MENOMONIE      CLOUDY    27  27  99 CALM      29.90F FOG
NEW RICHMOND   CLOUDY    25  25  98 SW5       29.89F FOG     WCI  20
OSCEOLA        CLOUDY    26  26 100 S3        29.92S FOG
$$

WIZ003>005-009-010-017-018-181000-
NORTH CENTRAL WISCONSIN

CITY           SKY/WX    TMP DP  RH WIND       PRES   REMARKS
MANITOWISH WTR CLOUDY    24  24 100 SW5       29.82S FOG     WCI  18
ARBOR VITAE    CLOUDY    27  26  96 SW3       29.83S FOG
WOODRUFF       CLOUDY    27  26  96 SW3       29.83S FOG
RHINELANDER    FOG       26  25  96 SW5       29.84S VSB 1   WCI  20
EAGLE RIVER    FOG       25  25 100 SW7       29.82S VSB 1   WCI  17
LAND O LAKES   CLOUDY    25  25  98 SW6       29.83S FOG     WCI  18
PHILLIPS       CLOUDY    25  25 100 SW5       29.83F FOG     WCI  19
TOMAHAWK       CLOUDY    25  24  96 CALM      29.86R FOG
MEDFORD        FOG       25  24  96 SW5       29.86S VSB 1/4 WCI  20
MERRILL        CLOUDY    26  26 100 W6        29.87S FOG     WCI  19
$$

WIZ029-030-035-036-043>047-181000-
CENTRAL WISCONSIN

CITY           SKY/WX    TMP DP  RH WIND       PRES   REMARKS
WAUSAU         LGT SNOW  26  26 100 W6        29.86S FOG     WCI  19
MOSINEE        FOG       28  28 100 SW7       29.88S VSB 1   WCI  21
MARSHFIELD     CLOUDY    27  27 100 W6        29.86S FOG     WCI  20
STEVENS POINT  CLOUDY    26  26 100 W6        29.89S FOG     WCI  20
WAUPACA        CLOUDY    30  28  92 CALM      29.90F FOG
WAUTOMA        CLOUDY    29  28  96 CALM      29.90F FOG
WISC RAPIDS    CLOUDY    29  27  92 W6        29.90S FOG     WCI  23
CAMP DOUGLAS   CLOUDY    30  30 100 W3        29.90S FOG
$$

WIZ011>013-019>022-031-037>040-048>050-181000-
NORTHEAST WISCONSIN

CITY           SKY/WX    TMP DP  RH WIND       PRES   REMARKS
ANTIGO         FOG       25  25 100 W7        29.85S VSB 3/4 WCI  17
SHAWANO        CLOUDY    30  28  94 W7        29.89S FOG     WCI  23
OCONTO         CLOUDY    28  27  99 CALM      29.89F
STURGEON BAY   CLOUDY    28  27  96 W7        29.90F FOG     WCI  21
GREEN BAY      CLOUDY    30  27  88 W8        29.89F FOG     WCI  22
MANITOWOC      CLOUDY    30  28  92 W6        29.91F FOG     WCI  24
APPLETON       CLOUDY    30  28  93 W5        29.88F FOG     WCI  25
CLINTONVILLE   CLOUDY    28  27  93 W5        29.89F FOG     WCI  23
OSHKOSH        CLOUDY    30  29  96 CALM      29.89F FOG
$$

WIZ032>034-041-042-053>061-181000-
SOUTHWEST WISCONSIN

CITY           SKY/WX    TMP DP  RH WIND       PRES   REMARKS
LA CROSSE      CLOUDY    31  29  92 CALM      29.91F FOG
SPARTA         CLOUDY    29  28  98 W3        29.92S FOG
VIROQUA        CLOUDY    30  30 100 CALM      29.89S VSB 3/4
BOSCOBEL       CLOUDY    33  29  85 CALM      29.92S FOG
PRAIRIE DU CHI CLOUDY    32  29  87 CALM      29.92S FOG
PLATTEVILLE    CLOUDY    33  33 100 SW6       29.90S VSB 1/2 WCI  28
$$

WIZ056-057-062-063-064-067-068-181000-
SOUTH CENTRAL WISCONSIN

CITY           SKY/WX    TMP DP  RH WIND       PRES   REMARKS
REEDSBURG      CLOUDY    31  31  99 CALM      29.90S FOG
BARABOO/DELLS  CLOUDY    31  29  94 CALM      29.89F FOG
LONE ROCK      NOT AVBL
MINERAL POINT  FOG       34  34 100 W5        29.89F VSB 1   WCI  30
MADISON        FOG       32  32 100 CALM      29.91S VSB 1
MIDDLETON      CLOUDY    34  34 100 CALM      29.90S
WATERTOWN      MIX PCPN  32  32 100 CALM      29.89F
MONROE         FOG       34  34 100 SW6       29.90S VSB 1/2 WCI  29
JANESVILLE     FOG       36  36 100 CALM      29.90F VSB 1
$$

WIZ051-052-058>065-066-070>072-181000-
SOUTHEAST WISCONSIN

CITY           SKY/WX    TMP DP  RH WIND       PRES   REMARKS
MILWAUKEE      DRZL/FOG  35  34  96 W3        29.91F VSB 1
WAUKESHA       DRIZZLE   32  32 100 CALM      29.92F
MILWAUKEE/TIMM DRZL/FOG  32  30  93 CALM      29.91F VSB 3/4
RACINE         LGT RAIN  35  34  96 CALM      29.93F VSB 1
BURLINGTON     FOG       46  46 100 CALM      29.91F VSB 3/4
KENOSHA        FOG       36  34  92 CALM      29.91F VSB 1
FOND DU LAC    CLOUDY    31  27  85 S3        29.90F FOG
SHEBOYGAN      CLOUDY    30  30 100 CALM      29.90F FOG
WEST BEND      MIX PCPN  32  32 100 CALM      29.90F
JUNEAU         MIX PCPN  31  31  99 CALM      29.90F VSB 3/4
$$

LSZ147-162-181000-
LAKE SUPERIOR

STATION/POSITION TIME  TEMP    WIND        PRES    WAVE
                       AIR SEA DIR/SP/G            HT/PER
                 (UTC) (F)     (DEG/KT/KT) (MB)    (FT/S)
DEVILS ISLAND    0800   27     220/ 16/ 19 1011.6F
SAXON HARBOR     0840   28                 1010.8F
$$

LMZ867-665-643>646-181000-
LAKE MICHIGAN

STATION/POSITION TIME  TEMP    WIND        PRES    WAVE
                       AIR SEA DIR/SP/G            HT/PER
                 (UTC) (F)     (DEG/KT/KT) (MB)    (FT/S)
NORTHPORT PIER   0840   31      CALM  /  1 1012.2S
KEWAUNEE LAKESHO 0830   30     250/  1/  2 1012.0F
SHEBOYGAN LAKESH 0800   31     260/  2/  2 1013.7F
PORT WASHINGTON  0840   33      CALM  /  2 1014.2S
MILWAUKEE LAKESH 0830   34     170/  2/  2   N/A
KENOSHA   LAKESH 0800   35     340/  3/  4 1013.9
$$

TC  - TEMPERATURE IN CELSIUS
VSB - VISIBILITY IN STATUTE MILES
WCI - WIND CHILL INDEX
HX  - HEAT INDEX




USA.gov is the U.S. government's official web portal to all federal, state and local government web resources and services.